Lapse_Rate
7.2 7.3 7.4 7.5 7.7 7.8 7.8 7.9 7.8 6.9 6.8 6.7 6.2 6.4 6.6 6.6 6.3 5.4 5.9 5.9 6.0 6.1 6.5 6.7 6.7 6.9 7.2 7.4 7.6 7.3 7.5 7.4 7.1 7.1 7.1 6.9 7.0 6.9 7.0 6.8 6.6 6.5 6.4
7.2 7.3 7.4 7.7 7.9 7.9 7.9 7.9 7.7 7.0 6.7 6.4 6.4 6.4 6.3 6.1 5.8 5.5 5.3 5.6 5.6 5.7 5.8 5.9 6.3 6.5 7.0 7.2 7.2 7.4 7.4 7.4 7.2 7.1 6.9 6.9 6.9 6.9 7.0 6.9 6.9 6.6 6.5
7.1 7.3 7.3 7.6 7.5 7.5 7.6 7.5 7.5 7.0 6.7 6.5 6.2 6.0 6.0 5.9 5.8 6.0 5.6 5.6 5.3 5.5 5.8 5.5 5.9 6.4 6.9 7.1 7.2 7.1 7.2 7.3 7.2 7.0 6.9 6.8 7.0 6.8 6.7 6.8 6.9 6.8 6.7
7.3 7.3 7.2 7.2 7.2 7.4 7.6 7.5 7.3 7.0 6.7 6.4 6.2 6.3 6.2 6.1 5.8 5.9 5.5 5.2 5.4 5.5 5.6 5.8 6.3 6.7 6.9 6.9 6.9 6.9 6.8 7.0 7.0 7.0 7.0 6.8 6.8 6.8 6.7 6.5 6.5 6.8 6.7
7.3 7.3 7.2 7.0 6.9 7.0 7.1 7.2 7.3 6.9 6.6 6.4 6.5 6.5 6.1 6.1 5.5 5.9 5.6 5.3 5.7 5.5 5.7 6.1 6.4 6.8 6.7 6.8 6.9 6.8 6.7 6.8 6.9 6.7 6.8 6.9 6.9 6.7 6.7 6.6 6.5 6.5 6.5
6.9 6.8 6.7 6.6 6.6 6.7 6.7 6.7 6.8 6.7 6.4 6.2 6.0 6.1 6.3 6.2 5.8 6.0 6.3 6.4 5.9 6.0 6.5 6.7 6.7 6.9 7.1 7.3 6.9 6.9 6.4 6.5 7.0 6.8 6.7 6.6 6.6 6.7 6.4 6.3 6.5 6.6 6.6
6.9 6.6 6.6 6.5 6.4 6.3 6.2 6.4 6.5 6.6 6.5 6.1 6.0 6.2 6.3 6.2 6.0 6.0 6.2 6.1 6.2 6.4 6.6 6.8 6.8 6.9 7.1 7.4 7.6 7.3 7.0 6.7 7.1 7.0 6.8 6.8 6.8 6.6 6.4 6.2 6.2 6.3 6.6
6.5 6.5 6.5 6.3 6.1 6.1 6.1 6.2 6.1 6.2 6.2 6.2 6.3 6.4 6.6 6.6 6.5 6.4 6.4 6.4 6.6 6.6 6.7 6.9 7.0 7.0 7.1 6.8 7.0 7.2 7.2 7.1 7.0 6.8 6.7 6.7 6.5 6.3 6.4 6.4 6.1 5.9 6.0
6.7 6.6 6.6 6.5 6.5 6.4 6.3 6.4 6.4 6.5 6.4 6.3 6.3 6.3 6.3 6.2 6.2 6.3 6.5 6.7 6.7 6.9 7.0 7.0 7.1 7.1 7.0 7.0 6.9 6.6 6.6 6.8 6.7 6.7 6.4 6.8 6.5 6.3 6.2 6.2 6.0 5.9 5.8
6.8 6.9 6.9 6.8 6.7 6.8 6.8 6.8 6.7 6.7 6.5 6.5 6.7 6.7 6.7 6.5 6.3 6.3 6.3 6.4 6.5 6.8 7.0 7.0 7.0 6.9 6.8 6.7 6.6 6.6 6.9 6.8 6.5 6.2 5.9 6.0 6.1 6.1 6.0 5.9 5.8 5.7 5.5
7.0 7.0 6.9 6.8 6.9 6.7 6.6 6.6 6.9 6.9 6.6 6.7 7.0 6.9 6.8 6.8 6.9 7.0 6.8 6.7 6.6 6.6 6.9 7.1 7.1 7.1 7.3 7.4 7.2 6.9 6.6 6.6 6.8 6.7 6.3 6.1 6.0 6.0 5.8 5.6 5.6 5.7 5.7
6.9 6.8 6.7 6.6 6.7 6.9 6.7 6.9 7.3 7.2 7.0 6.8 6.6 6.8 6.8 7.0 7.0 7.0 6.7 6.6 6.7 6.7 7.0 7.1 7.3 7.3 7.4 7.6 7.6 7.4 6.9 6.6 6.5 6.3 6.2 5.9 6.1 5.6 5.8 5.8 5.7 5.6 5.7
6.7 6.5 6.4 6.4 6.4 6.3 6.6 6.9 6.9 6.5 6.2 6.5 6.6 6.7 6.7 7.0 7.0 6.9 6.7 6.8 7.0 7.1 7.3 7.4 7.5 7.6 7.6 7.7 7.7 7.5 7.0 5.9 5.8 5.8 5.6 5.7 5.9 5.7 5.2 5.3 5.5 5.7 5.8
7.0 6.8 6.5 6.4 6.5 6.8 6.7 6.8 6.7 6.5 6.5 6.3 6.6 6.8 6.9 6.9 7.0 7.0 7.2 7.2 7.1 7.1 7.3 7.6 7.8 7.9 7.9 8.0 7.8 7.7 6.7 5.7 5.8 5.8 5.9 6.1 6.1 6.0 5.9 5.5 5.3 5.5 5.3
6.9 6.8 6.7 6.8 7.0 7.1 7.2 7.2 6.9 6.8 7.0 7.0 6.9 7.0 7.1 7.1 7.1 7.3 7.4 7.5 7.4 7.4 7.5 7.7 7.9 8.0 8.0 8.0 7.9 7.5 6.9 6.1 6.1 6.2 6.0 6.0 5.7 5.6 5.8 5.8 5.7 5.6 5.7
7.0 6.9 7.0 7.2 7.1 7.0 6.7 6.6 6.6 7.0 7.3 7.2 7.1 7.2 7.1 7.1 7.3 7.4 7.4 7.7 7.7 7.7 7.8 7.9 8.1 8.2 8.0 7.9 7.7 7.4 7.0 6.1 5.9 6.0 6.0 6.1 5.8 5.6 5.6 5.7 5.5 5.8 6.1
7.0 7.2 7.3 7.2 7.0 7.0 6.9 6.7 6.9 7.3 7.4 7.2 7.2 7.1 6.8 7.2 7.4 7.4 7.5 7.6 7.7 7.9 8.0 8.1 8.0 8.1 7.9 7.6 7.5 7.2 6.9 6.7 6.1 5.8 5.8 6.0 5.7 5.6 5.7 5.9 5.8 5.8 6.2
7.5 7.3 6.9 6.8 6.8 6.8 6.8 6.9 7.2 7.4 7.4 7.2 7.1 7.0 7.1 7.3 7.4 7.6 7.7 7.7 7.8 8.0 8.2 8.1 8.2 8.3 8.1 7.7 7.3 7.0 6.5 6.4 6.0 5.6 5.7 5.7 5.7 5.9 5.8 5.6 5.5 5.7 6.0
7.0 6.6 6.6 6.6 6.5 6.4 6.7 7.0 7.1 7.3 7.3 7.1 7.1 7.1 7.1 7.1 7.3 7.5 7.6 7.8 8.1 8.3 8.4 8.3 8.3 8.2 7.9 7.3 6.8 6.6 6.3 5.9 5.5 5.4 5.4 5.4 5.6 5.6 5.4 5.3 5.5 5.4 5.4
6.6 6.5 6.3 6.2 6.3 6.5 6.7 7.2 7.3 7.4 7.4 7.2 7.1 7.2 7.3 7.3 7.4 7.8 7.9 8.0 8.3 8.3 8.2 8.2 8.0 7.7 7.2 6.8 6.6 6.3 5.9 5.6 5.4 5.3 5.2 5.1 5.2 5.1 5.1 5.2 5.1 5.3 4.7
6.1 6.0 6.1 6.4 6.6 6.6 6.7 7.0 7.3 7.4 7.2 7.2 7.2 7.3 7.5 7.6 7.7 7.9 8.0 7.9 7.9 8.0 8.1 7.9 7.6 7.3 7.0 6.7 6.4 6.2 5.9 5.7 5.5 5.4 5.2 5.0 4.9 4.7 4.7 4.8 5.2 4.8 4.2
6.2 6.5 6.5 6.5 6.6 6.8 6.9 7.0 7.1 7.1 7.1 7.2 7.4 7.6 7.8 7.9 7.8 7.8 7.9 7.9 7.9 7.8 7.6 7.4 7.2 6.9 6.7 6.5 6.3 6.1 5.9 5.7 5.6 5.2 5.0 5.2 4.9 4.4 4.5 4.5 4.7 5.0 4.5
6.2 6.6 6.8 6.8 7.0 7.1 7.1 7.2 7.3 7.5 7.6 7.6 7.5 7.6 7.6 7.8 7.9 7.9 7.8 7.6 7.6 7.4 7.2 7.1 7.0 6.7 6.5 6.3 6.2 6.2 6.0 5.6 5.4 5.1 5.0 4.9 4.7 4.7 4.7 3.8 3.6 3.9 4.2
6.9 7.1 7.1 7.1 7.1 7.0 7.0 7.0 7.3 7.6 7.7 7.5 7.4 7.5 7.7 7.8 7.8 7.7 7.6 7.4 7.3 7.3 7.2 7.1 6.8 6.5 6.2 6.0 6.0 5.9 5.7 5.2 5.0 4.9 4.7 4.7 4.9 4.5 4.5 4.6 4.7 4.6 4.3
6.8 7.0 7.4 7.6 7.4 7.2 7.1 7.0 7.2 7.4 7.4 7.3 7.3 7.3 7.7 7.8 7.8 7.6 7.5 7.3 7.1 7.1 7.0 6.9 6.6 6.2 6.0 5.7 5.4 5.4 5.1 4.9 4.8 4.6 4.5 4.5 4.5 4.5 4.4 4.5 4.7 4.7 4.6
7.0 7.2 7.3 7.5 7.5 7.3 7.1 7.1 7.2 7.4 7.2 7.0 7.1 7.5 7.6 7.5 7.6 7.6 7.3 7.0 7.0 6.8 6.7 6.7 6.6 6.2 5.7 5.4 5.0 5.0 4.8 4.9 4.8 4.8 4.8 4.8 4.8 4.7 4.6 4.5 4.4 4.3 4.6
Wind_Speed
11 12 12 7 4 7 10 13 11 10 10 8 6 6 5 5 5 7 7 7 6 5 4 3 3 2 1 2 3 4 6 4 8 7 6 7 8 9 9 12 12 13 13
14 15 14 10 9 9 10 10 10 8 6 6 4 3 5 1 7 6 5 3 9 7 3 2 2 3 1 2 4 5 4 3 7 4 4 3 3 6 6 7 9 10 10
12 13 12 11 10 10 11 12 12 12 9 11 8 6 5 4 2 2 3 4 1 3 1 2 1 2 3 3 3 4 5 5 7 5 3 3 4 4 3 6 5 6 8
10 9 9 8 8 9 10 12 11 11 9 9 8 5 3 3 2 2 4 5 6 2 3 4 4 4 3 3 3 3 4 4 8 4 3 1 4 4 3 3 3 5 5
7 8 7 6 5 7 10 10 11 9 11 10 8 7 6 4 3 5 6 5 6 6 6 5 4 3 4 3 3 3 5 6 4 7 4 4 3 4 3 4 4 3 4
7 7 6 5 5 6 8 10 10 10 10 9 10 11 11 6 7 5 4 4 4 3 4 4 3 2 3 3 3 3 4 5 5 5 6 6 5 6 4 3 5 7 4
5 5 6 5 5 6 8 8 10 9 7 3 0 2 1 4 6 6 5 6 4 4 6 7 5 3 4 3 2 3 3 4 5 6 6 5 5 2 5 4 5 4 4
4 4 3 3 4 5 7 7 8 6 6 5 5 5 6 5 4 4 3 4 4 4 5 6 6 6 5 4 4 2 2 2 3 4 6 5 5 4 5 5 7 5 3
4 3 2 1 2 4 6 6 6 6 6 7 5 5 5 6 5 4 4 4 5 4 5 6 5 6 5 5 4 3 4 3 2 2 3 3 3 4 5 6 8 5 7
2 1 0 2 3 5 5 7 7 8 6 5 3 3 4 5 4 3 5 5 5 5 5 6 6 5 5 5 3 2 1 1 0 2 3 1 1 2 3 5 7 5 5
5 2 2 4 5 6 7 8 7 8 5 3 2 2 2 2 3 4 4 3 4 4 4 5 6 6 7 6 5 4 4 3 3 2 1 3 2 1 1 2 3 4 3
8 5 5 5 5 7 6 6 6 5 2 1 2 4 4 2 0 1 2 2 4 3 4 4 5 6 7 7 7 5 4 5 4 3 3 3 2 3 3 1 0 1 1
7 7 6 6 7 8 7 4 2 2 2 2 3 5 6 5 4 3 3 3 3 3 3 4 5 7 7 7 6 6 5 4 5 4 4 3 2 1 2 2 2 2 2
7 8 8 8 7 8 6 3 4 4 4 4 4 4 4 4 3 3 3 2 2 3 3 3 4 5 6 7 8 8 8 7 5 5 4 3 2 1 1 2 3 3 2
7 7 6 7 8 6 2 4 5 6 5 6 5 4 4 4 4 3 3 3 3 3 3 3 4 5 7 6 9 9 8 8 7 6 4 4 6 7 5 1 2 2 3
7 4 4 3 2 3 4 5 6 5 5 4 4 4 5 5 4 3 3 3 2 1 2 4 5 6 4 12 14 11 7 7 7 7 6 6 9 9 9 7 4 3 7
3 2 1 4 4 5 5 6 4 3 4 4 5 5 4 5 4 4 4 4 3 3 2 4 6 6 8 13 14 13 7 8 7 7 6 5 5 8 8 10 9 10 9
4 4 4 5 4 3 4 5 4 4 4 5 4 4 5 4 3 3 4 5 3 3 3 4 5 6 4 12 14 13 8 7 7 6 6 5 5 4 5 5 5 5 5
5 6 5 4 4 4 3 3 4 5 4 3 2 2 3 4 3 3 5 4 4 4 3 3 5 6 7 13 14 11 8 8 7 6 6 5 4 6 7 7 8 8 8
7 6 5 4 4 4 4 2 2 2 3 2 3 3 3 4 3 3 4 2 3 4 4 4 4 7 7 12 11 9 6 8 6 6 6 6 4 7 7 7 7 8 6
7 6 6 6 6 7 6 4 4 2 1 1 2 1 3 3 3 4 2 3 4 4 4 5 4 4 5 8 11 11 6 6 6 6 5 4 8 8 8 7 5 7 9
6 6 6 6 7 8 7 5 4 5 3 2 2 2 1 1 3 5 5 5 5 5 5 6 4 3 5 10 9 10 8 9 7 6 5 6 11 10 10 9 15 15 10
6 5 4 3 4 6 6 6 5 6 5 3 2 3 3 2 3 5 6 5 5 4 4 4 5 5 4 5 9 9 12 10 6 6 7 13 12 13 10 14 15 11 5
5 5 4 6 6 7 6 5 7 6 6 5 4 4 4 4 4 4 4 4 4 4 4 5 5 5 5 5 5 6 5 8 6 9 7 10 11 6 10 9 7 6 4
7 6 6 6 6 7 7 6 6 6 6 5 5 6 5 6 5 3 3 3 3 3 5 5 5 6 6 5 7 7 5 5 7 8 7 7 6 5 6 5 5 4 5
6 7 7 6 5 7 7 7 6 7 7 6 5 5 5 5 4 5 4 3 4 5 5 8 6 4 7 12 13 12 13 14 13 5 6 6 6 6 6 5 5 4 5
Wind_Direction
339 349 342 338 173 172 149 133 134 133 133 129 129 123 120 128 79 60 46 46 52 68 89 107 115 112 150 144 142 122 129 128 136 113 83 61 57 55 67 90 96 90 93
356 5 9 37 77 93 106 123 115 119 103 92 75 69 118 338 112 114 79 43 36 18 18 29 178 91 201 197 187 170 152 141 174 157 128 145 105 61 48 84 89 95 95
359 8 12 29 55 76 93 103 109 101 100 110 112 98 93 74 67 118 152 95 59 269 255 244 118 206 210 205 197 203 191 174 187 205 178 161 181 131 68 59 85 96 97
23 25 27 42 66 83 96 104 109 119 139 149 134 144 132 123 213 198 144 161 151 248 288 239 195 181 194 225 216 203 218 206 199 190 211 343 134 172 154 114 97 111 107
33 33 35 54 81 115 121 125 128 150 163 162 151 139 131 127 179 178 174 156 163 173 205 226 216 199 201 202 215 208 219 218 230 223 183 179 162 160 147 160 164 130 130
44 53 65 87 97 114 130 146 150 161 174 184 173 164 166 164 193 185 168 169 169 189 237 236 238 212 221 230 218 211 223 229 231 231 225 199 184 181 167 134 165 168 158
78 81 87 106 125 140 152 161 168 172 185 182 277 8 56 206 208 177 181 183 187 199 213 208 202 212 213 206 237 241 228 221 219 226 241 240 232 189 174 147 156 165 158
66 72 87 114 148 170 180 185 187 186 189 193 204 211 218 226 234 221 195 211 216 215 198 206 209 212 203 198 198 213 254 256 262 232 222 229 235 225 208 172 161 160 174
65 48 50 232 234 237 225 219 212 221 219 215 219 227 232 238 246 232 223 232 223 218 210 211 210 208 214 223 226 210 194 202 192 218 261 248 216 217 219 212 199 180 181
113 95 256 267 238 222 232 239 233 232 230 235 240 256 247 242 249 247 245 238 233 217 205 208 209 201 197 199 203 221 257 248 140 161 162 166 339 302 265 223 204 210 179
182 188 280 264 244 243 234 234 230 238 235 219 176 185 212 238 239 245 256 258 254 242 229 216 206 201 195 192 191 187 178 184 153 112 113 110 107 85 330 271 225 201 180
185 212 255 277 274 266 270 269 271 269 296 321 131 113 108 103 119 337 325 289 286 283 264 234 224 209 196 190 186 177 172 170 161 135 122 105 109 108 72 32 336 218 59
210 234 252 271 278 292 285 283 24 55 65 88 103 86 70 58 38 14 356 347 330 296 262 240 233 216 201 185 174 166 127 134 124 127 146 129 142 123 99 80 10 30 64
267 286 290 301 304 295 278 193 127 94 88 76 62 67 66 62 36 11 357 345 314 284 263 244 239 223 188 170 152 140 126 123 112 97 103 97 89 64 33 56 75 56 81
259 276 312 315 309 301 198 130 110 96 90 97 99 88 89 83 75 47 24 357 331 306 278 227 199 183 169 162 150 140 129 139 130 126 118 95 91 89 64 22 97 104 128
248 298 328 357 4 96 106 87 78 67 72 85 90 83 79 86 84 85 83 77 52 25 197 190 170 159 141 131 130 133 131 146 148 134 127 114 104 97 93 86 62 221 213
299 319 105 96 96 93 105 105 95 72 68 64 57 60 66 87 89 96 91 83 89 106 143 143 137 133 135 142 136 134 142 150 152 148 147 131 113 111 108 85 79 67 70
182 137 126 139 135 131 105 119 96 72 62 62 62 52 71 86 97 120 113 107 115 129 147 134 124 128 135 141 136 136 139 140 139 139 139 145 138 126 127 115 97 81 70
151 172 172 141 130 104 78 76 81 97 92 78 64 98 136 134 136 107 111 118 130 123 108 116 123 127 135 145 149 141 139 134 130 128 129 142 152 156 153 138 131 114 92
179 172 149 132 146 132 109 105 98 104 107 166 166 153 158 139 139 124 111 84 92 116 135 122 119 142 144 158 157 144 141 144 140 133 124 128 138 146 158 150 146 128 106
184 172 166 173 179 158 147 162 148 143 146 147 125 130 201 156 129 111 84 117 117 118 110 108 90 110 149 158 158 155 153 154 153 149 143 139 138 135 147 141 138 125 116
172 188 187 193 174 172 164 162 170 147 147 134 94 103 52 150 126 118 119 120 125 129 132 132 124 115 113 134 158 162 150 153 155 147 138 148 136 138 135 131 125 119 118
197 199 209 191 171 188 184 169 174 160 149 146 160 138 134 131 142 142 140 135 143 147 146 151 148 141 132 133 139 149 142 137 134 136 140 134 137 128 136 127 124 124 125
221 208 214 219 208 196 187 172 159 163 156 165 165 163 163 160 162 150 143 151 159 157 166 170 160 152 150 135 135 122 121 125 125 139 138 117 108 103 117 116 119 120 127
215 204 213 225 222 186 181 176 160 165 172 166 169 180 179 178 162 140 144 160 165 183 179 176 165 163 162 155 149 142 136 132 122 116 121 127 141 128 125 120 111 108 120
210 213 222 224 197 178 166 170 173 188 174 170 179 183 177 170 154 145 125 101 144 154 145 156 158 130 132 150 147 137 133 134 135 130 150 151 159 156 147 137 131 131 135